TimeCET,TemperatureF,Dew PointF,Humidity,Sea Level PressureIn,VisibilityMPH,Wind Direction,Wind SpeedMPH,Gust SpeedMPH,PrecipitationIn,Events,Conditions,WindDirDegrees,DateUTC
12:15 AM,41.0,35.6,81,30.33,6.2,West,11.2,-,N/A,,Overcast,280,2013-01-03 23:15:00
12:45 AM,41.0,35.6,81,30.30,6.2,West,11.2,-,N/A,,Overcast,280,2013-01-03 23:45:00
1:15 AM,41.0,35.6,81,30.33,6.2,West,8.9,-,N/A,,Overcast,270,2013-01-04 00:15:00
1:45 AM,41.0,35.6,81,30.30,6.2,West,8.9,-,N/A,,Overcast,270,2013-01-04 00:45:00
2:15 AM,42.8,37.4,81,30.30,6.2,West,11.2,-,N/A,,Overcast,260,2013-01-04 01:15:00
2:45 AM,42.8,37.4,81,30.27,6.2,West,11.2,-,N/A,,Overcast,260,2013-01-04 01:45:00
3:15 AM,42.8,37.4,81,30.27,6.2,West,11.2,-,N/A,,Overcast,270,2013-01-04 02:15:00
3:45 AM,42.8,37.4,81,30.27,6.2,West,11.2,-,N/A,,Overcast,270,2013-01-04 02:45:00
4:15 AM,42.8,37.4,81,30.27,6.2,West,11.2,-,N/A,,Overcast,280,2013-01-04 03:15:00
4:45 AM,44.6,37.4,76,30.27,6.2,West,13.4,-,N/A,,Overcast,280,2013-01-04 03:45:00
5:15 AM,44.6,37.4,76,30.27,6.2,WNW,13.4,-,N/A,,Overcast,290,2013-01-04 04:15:00
5:45 AM,-9999,-9999,N/A,-9999,6.2,WNW,13.4,24.6,N/A,,Mostly Cloudy,300,2013-01-04 04:45:00
6:15 AM,44.6,37.4,76,30.27,6.2,WNW,13.4,-,N/A,,Overcast,290,2013-01-04 05:15:00
6:45 AM,42.8,37.4,81,30.27,6.2,WNW,13.4,24.6,N/A,,Mostly Cloudy,290,2013-01-04 05:45:00
7:15 AM,42.8,37.4,81,30.27,6.2,WNW,13.4,-,N/A,,Mostly Cloudy,290,2013-01-04 06:15:00
7:45 AM,42.8,37.4,81,30.27,6.2,WNW,15.7,-,N/A,,Mostly Cloudy,290,2013-01-04 06:45:00
8:15 AM,44.6,37.4,76,30.27,6.2,WNW,15.7,-,N/A,,Mostly Cloudy,290,2013-01-04 07:15:00
8:45 AM,-9999,-9999,N/A,-9999,6.2,WNW,13.4,26.8,N/A,,Mostly Cloudy,300,2013-01-04 07:45:00
8:51 AM,44.6,39.2,81,30.24,6.2,WNW,15.7,29.1,N/A,,Mostly Cloudy,290,2013-01-04 07:51:00
9:15 AM,44.6,39.2,81,30.24,6.2,WNW,15.7,-,N/A,,Mostly Cloudy,290,2013-01-04 08:15:00
9:45 AM,46.4,39.2,76,30.27,6.2,WNW,15.7,-,N/A,,Mostly Cloudy,290,2013-01-04 08:45:00
10:15 AM,46.4,39.2,76,30.24,6.2,WNW,20.1,-,N/A,,Mostly Cloudy,290,2013-01-04 09:15:00
10:45 AM,46.4,39.2,76,30.24,6.2,WNW,17.9,29.1,N/A,,Mostly Cloudy,290,2013-01-04 09:45:00
11:15 AM,46.4,39.2,76,30.24,6.2,WNW,11.2,-,N/A,,Mostly Cloudy,290,2013-01-04 10:15:00
11:45 AM,-9999,-9999,N/A,-9999,6.2,WNW,15.7,29.1,N/A,,Overcast,300,2013-01-04 10:45:00
12:15 PM,48.2,37.4,66,30.24,6.2,NW,20.1,31.3,N/A,,Mostly Cloudy,310,2013-01-04 11:15:00
12:45 PM,48.2,37.4,66,30.21,6.2,NW,20.1,-,N/A,,Mostly Cloudy,310,2013-01-04 11:45:00
1:15 PM,48.2,35.6,62,30.21,6.2,NW,20.1,31.3,N/A,,Mostly Cloudy,310,2013-01-04 12:15:00
1:45 PM,50.0,35.6,58,30.21,6.2,NW,17.9,31.3,N/A,,Mostly Cloudy,310,2013-01-04 12:45:00
2:15 PM,50.0,33.8,54,30.21,6.2,NW,13.4,29.1,N/A,,Mostly Cloudy,310,2013-01-04 13:15:00
2:45 PM,-9999,-9999,N/A,-9999,6.2,WNW,11.2,-,N/A,,Overcast,300,2013-01-04 13:45:00
3:15 PM,48.2,33.8,58,30.21,6.2,NW,15.7,26.8,N/A,,Mostly Cloudy,310,2013-01-04 14:15:00
3:45 PM,46.4,32.0,57,30.21,6.2,NW,13.4,-,N/A,,Mostly Cloudy,310,2013-01-04 14:45:00
4:15 PM,46.4,33.8,62,30.21,-9999.0,WNW,11.2,-,N/A,,Clear,290,2013-01-04 15:15:00
4:45 PM,44.6,35.6,71,30.21,-9999.0,WNW,13.4,-,N/A,,Clear,300,2013-01-04 15:45:00
5:15 PM,44.6,35.6,71,30.21,-9999.0,WNW,11.2,-,N/A,,Clear,300,2013-01-04 16:15:00
5:45 PM,-9999,-9999,N/A,-9999,3.7,WNW,11.2,-,N/A,Rain,Rain,290,2013-01-04 16:45:00
6:15 PM,44.6,35.6,71,30.18,-9999.0,WNW,8.9,-,N/A,,Clear,290,2013-01-04 17:15:00
6:45 PM,44.6,35.6,71,30.18,-9999.0,WNW,11.2,-,N/A,,Clear,290,2013-01-04 17:45:00
7:15 PM,44.6,35.6,71,30.18,-9999.0,WNW,13.4,-,N/A,,Clear,290,2013-01-04 18:15:00
7:45 PM,44.6,37.4,76,30.18,-9999.0,WNW,13.4,-,N/A,,Clear,290,2013-01-04 18:45:00
8:15 PM,46.4,37.4,71,30.15,-9999.0,WNW,11.2,-,N/A,,Clear,290,2013-01-04 19:15:00
8:45 PM,-9999,-9999,N/A,-9999,3.7,West,8.9,-,N/A,Rain,Rain,270,2013-01-04 19:45:00
9:15 PM,44.6,37.4,76,30.15,-9999.0,West,11.2,-,N/A,,Clear,280,2013-01-04 20:15:00
9:45 PM,46.4,37.4,71,30.12,-9999.0,West,13.4,-,N/A,,Clear,280,2013-01-04 20:45:00
10:15 PM,44.6,39.2,81,30.12,-9999.0,West,11.2,-,N/A,,Clear,280,2013-01-04 21:15:00
10:45 PM,44.6,39.2,81,30.09,-9999.0,West,13.4,-,N/A,,Clear,270,2013-01-04 21:45:00
11:15 PM,44.6,39.2,81,30.09,-9999.0,West,8.9,-,N/A,,Clear,270,2013-01-04 22:15:00
11:45 PM,-9999,-9999,N/A,-9999,0.3,North,-9999.0,-,N/A,Rain,Rain,0,2013-01-04 22:45:00